Simultaneous Nadir Overpasses (SNOs) Predictions

Prediction of SNOs between LANDSAT-8 and METOP-A Satellite Orbit:

Table of predicted SNOs for the next 14.0 days since TLE Epoch: 12/22/2018
Index Date (LANDSAT-8) Time (LANDSAT-8) Lat,Lon (LANDSAT-8) SZA (LANDSAT-8 ) Date (METOP-A) Time (METOP-A) Lat,Lon (METOP-A) SZA (METOP-A ) Distance(km) Time Diff (sec)
1 12/24/2018 06:23:05 -81.43, -50.51 72.77 12/24/2018 06:22:28 -81.43, -50.48 72.78 0.54 37
2 12/24/2018 07:12:31 81.44, 117.24 107.25 12/24/2018 07:13:07 81.43, 117.37 107.28 2.20 36
3 12/27/2018 01:57:21 -81.44, 16.04 72.87 12/27/2018 01:56:43 -81.43, 15.92 72.90 2.20 38
4 12/27/2018 02:46:48 81.42,-176.62 107.09 12/27/2018 02:47:23 81.43,-176.65 107.11 0.88 35
5 12/29/2018 21:31:37 -81.43, 82.31 73.07 12/29/2018 21:30:57 -81.43, 82.31 73.09 0.12 40
6 12/29/2018 22:21:03 81.43,-109.99 106.94 12/29/2018 22:21:36 81.43,-109.89 106.97 1.74 33
7 01/01/2019 17:05:54 -81.43, 148.69 73.32 01/01/2019 17:05:12 -81.43, 148.67 73.33 0.25 42
8 01/01/2019 17:55:20 81.43, -43.65 106.69 01/01/2019 17:55:51 81.43, -43.54 106.72 1.76 31
9 01/04/2019 12:40:11 -81.43,-144.84 73.61 01/04/2019 12:39:27 -81.43,-144.98 73.64 2.39 44




NCC Satellite Simultaneous Nadir Overpasses (SNOs) Prediction Service
